When you browse on this site, cookies collect data to enhance your experience and personalize the content and advertising you see.
Visit our Privacy Policy to learn more. By continuing to use the site, you agree to this use of cookies and data.
  • In Portugal
  • List of Countries
  • For 7 days
  • Water Temperature
  • Satellite Maps
  • Weather Map
  • Weather Widgets
  • user-avatar
    Login

    Hourly Weather Haradok

    Today, 27 May, Monday

    Time Temperature Precipitation Wind Pressure Humidity
    00:00 +10°C° 0 mm 3 mps 743 mmHg 88%
    01:00 +10°C° 0 mm 4 mps 742 mmHg 88%
    02:00 +11°C° 0 mm 4 mps 742 mmHg 86%
    03:00 +11°C° 0 mm 4 mps 742 mmHg 85%
    04:00 +11°C° 0 mm 4 mps 742 mmHg 85%
    05:00 +12°C° 0 mm 4 mps 742 mmHg 85%
    06:00 +13°C° 0 mm 5 mps 742 mmHg 83%
    07:00 +14°C° 0 mm 5 mps 743 mmHg 81%
    08:00 +14°C° 0 mm 6 mps 743 mmHg 79%
    09:00 +15°C° 0 mm 5 mps 743 mmHg 76%
    10:00 +16°C° 0 mm 5 mps 743 mmHg 73%
    11:00 +17°C° 0 mm 5 mps 743 mmHg 70%
    12:00 +20°C° 0.3 mm 5 mps 743 mmHg 68%
    13:00 +21°C° 0.3 mm 6 mps 743 mmHg 65%
    14:00 +22°C° 0.3 mm 6 mps 743 mmHg 63%
    15:00 +21°C° 0.8 mm 5 mps 743 mmHg 69%
    16:00 +21°C° 0.8 mm 5 mps 743 mmHg 75%
    17:00 +20°C° 0.8 mm 4 mps 743 mmHg 81%
    18:00 +19°C° 0.4 mm 3 mps 743 mmHg 83%
    19:00 +18°C° 0.4 mm 3 mps 743 mmHg 86%
    20:00 +17°C° 0.4 mm 2 mps 743 mmHg 88%
    21:00 +16°C° 0 mm 2 mps 744 mmHg 90%
    22:00 +15°C° 0 mm 2 mps 744 mmHg 92%
    23:00 +15°C° 0 mm 2 mps 744 mmHg 94%

    Tomorrow, 28 May, Tuesday

    Time Temperature Precipitation Wind Pressure Humidity
    00:00 +14°C° 0 mm 2 mps 744 mmHg 94%
    01:00 +14°C° 0 mm 2 mps 744 mmHg 95%
    02:00 +14°C° 0 mm 2 mps 745 mmHg 95%
    03:00 +14°C° 0 mm 2 mps 745 mmHg 95%
    04:00 +14°C° 0 mm 2 mps 745 mmHg 95%
    05:00 +14°C° 0 mm 2 mps 745 mmHg 95%
    06:00 +16°C° 0 mm 2 mps 745 mmHg 91%
    07:00 +18°C° 0 mm 3 mps 745 mmHg 86%
    08:00 +20°C° 0 mm 3 mps 745 mmHg 81%
    09:00 +21°C° 0.2 mm 4 mps 745 mmHg 77%
    10:00 +22°C° 0.2 mm 4 mps 745 mmHg 74%
    11:00 +23°C° 0.2 mm 5 mps 744 mmHg 70%
    12:00 +23°C° 0.4 mm 5 mps 744 mmHg 69%
    13:00 +25°C° 0.4 mm 5 mps 744 mmHg 69%
    14:00 +24°C° 0.4 mm 6 mps 743 mmHg 68%
    15:00 +24°C° 0.1 mm 6 mps 743 mmHg 66%
    16:00 +24°C° 0.1 mm 6 mps 743 mmHg 65%
    17:00 +24°C° 0.1 mm 6 mps 743 mmHg 63%
    18:00 +23°C° 0.2 mm 6 mps 743 mmHg 69%
    19:00 +22°C° 0.2 mm 5 mps 743 mmHg 75%
    20:00 +20°C° 0.2 mm 5 mps 743 mmHg 80%
    21:00 +20°C° 0.1 mm 4 mps 743 mmHg 83%
    22:00 +19°C° 0.1 mm 4 mps 743 mmHg 86%
    23:00 +18°C° 0.1 mm 4 mps 743 mmHg 89%

    Day after tomorrow, 29 May, Wednesday

    Time Temperature Precipitation Wind Pressure Humidity
    00:00 +18°C° 0 mm 4 mps 743 mmHg 90%
    01:00 +18°C° 0 mm 4 mps 743 mmHg 90%
    02:00 +17°C° 0 mm 4 mps 743 mmHg 90%
    03:00 +18°C° 0.1 mm 4 mps 743 mmHg 90%
    04:00 +18°C° 0.1 mm 4 mps 743 mmHg 90%
    05:00 +18°C° 0.1 mm 4 mps 744 mmHg 90%
    06:00 +19°C° 0 mm 5 mps 744 mmHg 84%
    07:00 +20°C° 0 mm 5 mps 744 mmHg 78%
    08:00 +21°C° 0 mm 6 mps 744 mmHg 71%
    09:00 +22°C° 0 mm 6 mps 744 mmHg 69%
    10:00 +22°C° 0 mm 5 mps 744 mmHg 68%
    11:00 +22°C° 0 mm 5 mps 744 mmHg 66%
    12:00 +23°C° 0.1 mm 5 mps 745 mmHg 65%
    13:00 +25°C° 0.1 mm 5 mps 745 mmHg 64%
    14:00 +26°C° 0.1 mm 5 mps 745 mmHg 63%
    15:00 +25°C° 1.5 mm 4 mps 745 mmHg 70%
    16:00 +23°C° 1.5 mm 4 mps 746 mmHg 77%
    17:00 +22°C° 1.5 mm 3 mps 746 mmHg 85%
    18:00 +21°C° 1.5 mm 2 mps 746 mmHg 88%
    19:00 +19°C° 1.5 mm 2 mps 746 mmHg 91%
    20:00 +19°C° 1.5 mm 1 mps 747 mmHg 95%
    21:00 +17°C° 0.3 mm 2 mps 747 mmHg 96%
    22:00 +17°C° 0.3 mm 2 mps 747 mmHg 96%
    23:00 +16°C° 0.3 mm 3 mps 748 mmHg 97%

    30 May, Thursday

    Time Temperature Precipitation Wind Pressure Humidity
    00:00 +16°C° 0.2 mm 3 mps 748 mmHg 97%
    01:00 +14°C° 0.2 mm 3 mps 748 mmHg 97%
    02:00 +13°C° 0.2 mm 3 mps 748 mmHg 97%
    03:00 +13°C° 0.7 mm 3 mps 748 mmHg 97%
    04:00 +13°C° 0.7 mm 3 mps 748 mmHg 97%
    05:00 +13°C° 0.7 mm 3 mps 748 mmHg 97%
    06:00 +13°C° 0.4 mm 3 mps 748 mmHg 96%
    07:00 +13°C° 0.4 mm 3 mps 748 mmHg 96%
    08:00 +14°C° 0.4 mm 3 mps 748 mmHg 96%
    09:00 +16°C° 0.4 mm 3 mps 748 mmHg 95%
    10:00 +16°C° 0.4 mm 3 mps 748 mmHg 94%
    11:00 +17°C° 0.4 mm 3 mps 748 mmHg 93%
    12:00 +17°C° 0.4 mm 3 mps 748 mmHg 93%
    13:00 +17°C° 0.4 mm 3 mps 748 mmHg 93%
    14:00 +18°C° 0.4 mm 3 mps 748 mmHg 93%
    15:00 +17°C° 0.1 mm 3 mps 748 mmHg 92%
    16:00 +17°C° 0.1 mm 3 mps 748 mmHg 91%
    17:00 +17°C° 0.1 mm 3 mps 748 mmHg 91%
    18:00 +16°C° 0 mm 3 mps 749 mmHg 92%
    19:00 +15°C° 0 mm 2 mps 749 mmHg 93%
    20:00 +15°C° 0 mm 2 mps 749 mmHg 94%
    21:00 +14°C° 0 mm 2 mps 749 mmHg 95%
    22:00 +13°C° 0 mm 2 mps 749 mmHg 95%
    23:00 +13°C° 0 mm 2 mps 749 mmHg 96%

    31 May, Friday

    Time Temperature Precipitation Wind Pressure Humidity
    00:00 +12°C° 0 mm 1 mps 749 mmHg 96%
    01:00 +12°C° 0 mm 1 mps 750 mmHg 96%
    02:00 +12°C° 0 mm 1 mps 750 mmHg 96%
    03:00 +12°C° 0 mm 1 mps 750 mmHg 96%
    04:00 +11°C° 0 mm 1 mps 750 mmHg 96%
    05:00 +11°C° 0 mm 1 mps 750 mmHg 95%
    06:00 +13°C° 0 mm 1 mps 750 mmHg 86%
    07:00 +15°C° 0 mm 1 mps 750 mmHg 78%
    08:00 +16°C° 0 mm 1 mps 751 mmHg 69%
    09:00 +19°C° 0 mm 1 mps 751 mmHg 62%
    10:00 +19°C° 0 mm 2 mps 751 mmHg 55%
    11:00 +21°C° 0 mm 2 mps 751 mmHg 48%
    12:00 +21°C° 0 mm 2 mps 750 mmHg 45%
    13:00 +23°C° 0 mm 2 mps 750 mmHg 42%
    14:00 +24°C° 0 mm 2 mps 750 mmHg 39%
    15:00 +23°C° 0 mm 2 mps 750 mmHg 41%
    16:00 +23°C° 0 mm 2 mps 750 mmHg 42%
    17:00 +23°C° 0 mm 2 mps 750 mmHg 44%
    18:00 +20°C° 0 mm 2 mps 750 mmHg 50%
    19:00 +18°C° 0 mm 2 mps 750 mmHg 56%
    20:00 +16°C° 0 mm 2 mps 750 mmHg 62%
    21:00 +16°C° 0 mm 2 mps 749 mmHg 63%
    22:00 +15°C° 0 mm 2 mps 749 mmHg 64%
    23:00 +14°C° 0 mm 2 mps 749 mmHg 64%

    1 June, Saturday

    Time Temperature Precipitation Wind Pressure Humidity
    00:00 +14°C° 0 mm 2 mps 749 mmHg 66%
    01:00 +12°C° 0 mm 3 mps 749 mmHg 68%
    02:00 +12°C° 0 mm 3 mps 749 mmHg 69%
    03:00 +12°C° 0 mm 3 mps 749 mmHg 71%
    04:00 +12°C° 0 mm 3 mps 748 mmHg 72%
    05:00 +12°C° 0 mm 4 mps 748 mmHg 74%
    06:00 +13°C° 0.1 mm 4 mps 748 mmHg 73%
    07:00 +14°C° 0.1 mm 4 mps 748 mmHg 73%
    08:00 +15°C° 0.1 mm 4 mps 748 mmHg 72%
    09:00 +15°C° 0.1 mm 4 mps 748 mmHg 75%
    10:00 +14°C° 0.1 mm 4 mps 748 mmHg 77%
    11:00 +14°C° 0.1 mm 4 mps 748 mmHg 79%
    12:00 +14°C° 0.2 mm 4 mps 748 mmHg 79%
    13:00 +15°C° 0.2 mm 4 mps 748 mmHg 79%
    14:00 +15°C° 0.2 mm 5 mps 748 mmHg 79%
    15:00 +14°C° 0 mm 5 mps 748 mmHg 80%
    16:00 +14°C° 0 mm 5 mps 748 mmHg 80%
    17:00 +13°C° 0 mm 5 mps 748 mmHg 80%
    18:00 +12°C° 0 mm 5 mps 748 mmHg 82%
    19:00 +12°C° 0 mm 4 mps 748 mmHg 83%
    20:00 +11°C° 0 mm 4 mps 749 mmHg 84%
    21:00 +11°C° 0 mm 4 mps 749 mmHg 85%
    22:00 +11°C° 0 mm 4 mps 749 mmHg 86%
    23:00 +10°C° 0 mm 4 mps 749 mmHg 87%
    Show more